Hourly Data Report for September 04, 2017

All times are specified in Local Standard Time (LST). Add 1 hour to adjust for Daylight Saving Time where and when it is observed.

MIRAMICHI RCS
NEW BRUNSWICK

47°00'34.000" N
65°27'54.000" W
33.00 m
8100989
71744
ACQ

Download Data

Hourly Data (September 2017)
Hourly Data Report for September 4, 2017
Temp Definition
°C
Dew Point Temp Definition
°C
Rel Hum Definition
%
Wind Dir Definition
10's deg

Wind Spd Definition
km/h
Visibility Definition
km
Stn Press Definition
kPa
Hmdx Definition


Wind Chill Definition


Weather Definition


TIME
00:00 13.2 10.2 82 10 8   100.72     LegendNANA
01:00 12.5 11.0 91 10 12   100.54     LegendNANA
02:00 12.2 11.6 96 6 14   100.32     LegendNANA
03:00 12.8 12.2 96 7 19   100.09     LegendNANA
04:00 12.9 12.4 97 5 12   99.87     LegendNANA
05:00 13.3 12.9 98 5 10   99.72     LegendNANA
06:00 13.8 13.4 98 6 8   99.57     LegendNANA
07:00 14.1 13.7 97   0   99.52     LegendNANA
08:00 15.2 14.6 96 21 9   99.47     LegendNANA
09:00 15.2 14.1 93 23 17   99.45     LegendNANA
10:00 16.1 14.6 90 24 19   99.47     LegendNANA
11:00 16.9 14.6 86 25 17   99.52     LegendNANA
12:00 17.0 13.6 80 26 22   99.59     LegendNANA
13:00 18.2 12.4 69 27 22   99.71     LegendNANA
14:00 18.7 11.8 64 26 31   99.77     LegendNANA
15:00 19.5 11.2 59 28 23   99.85     LegendNANA
16:00 18.5 11.1 62 27 23   99.92     LegendNANA
17:00 18.6 11.2 62 25 16   99.97     LegendNANA
18:00 17.9 11.4 66 24 19   100.01     LegendNANA
19:00 15.9 11.7 76 22 10   100.10     LegendNANA
20:00 14.9 11.6 80 19 9   100.16     LegendNANA
21:00 15.7 11.9 78 22 8   100.16     LegendNANA
22:00 16.2 12.1 77 23 10   100.16     LegendNANA
23:00 17.2 12.0 71 21 18   100.18     LegendNANA

Notes on Data Quality.

Legend

  • E = Estimated
  • M = Missing
  • NA = Not Available
  • ‡ = Partner data that is not subject to review by the National Climate Archives
Date modified: